Location: Unspecified
(0.0000°N, 0.0000°E)
Time: 09:18:42
(UTC+00:00)

Vanguard 2 - Pass Details

Date: 22 October 2021
Orbit: 554 x 2936 km, 32.9° (Epoch: 06 December)

Event Time Altitude Azimuth Distance (km) Brightness Sun altitude
Rises 20:29:39 0° 225° (SW) 6,335 12.9 -40.3°
Reaches altitude 10° 20:33:47 10° 220° (SW) 5,513 12.3 -41.3°
Enters shadow 20:50:21 55° 151° (SSE) 3,324 10.4 -45.3°
Maximum altitude 20:50:50 55° 146° (SE) 3,316 - -45.4°
Drops below altitude 10° 21:06:22 10° 73° (ENE) 5,109 - -49.1°
Sets 21:09:58 0° 69° (ENE) 5,866 - -50.0°
